Folgueroles





Hora UTC 16:50
Temperatura 22.8 ºC
Humitat 62.0 %
Pressió 1024.2 hPa
Pluja 0.0 mm
Velocitat vent 0.0 km/h
Direcció vent S

Dades diàries 2020-05-25



Hora UTC (hivern +1h; estiu +2h)
Temperatura (ºC) Humitat (%) Pressió (hPa) Velocitat vent (km/h) Precipitació (mm)
Hora UTC Aire Humitat Pressió Vel. Dir. Vel. Max Dir. Intent. màx 5 min.
00:05 17.7 84.0 1026.7 0.0 WNW 0.0 0.0
00:10 17.7 85.0 1026.6 0.0 WNW 1.6 0.0
00:15 17.7 85.0 1026.5 0.0 WNW 1.6 0.0
00:20 17.7 85.0 1026.3 0.0 WNW 0.0 0.0
00:25 17.7 85.0 1026.3 0.0 WNW 0.0 0.0
00:30 17.6 85.0 1026.3 0.0 WNW 1.6 0.0
00:35 17.6 84.0 1026.3 0.0 WNW 1.6 0.0
00:40 17.6 85.0 1026.4 0.0 WNW 0.0 0.0
00:45 17.7 85.0 1026.3 0.0 WNW 0.0 0.0
00:50 17.7 85.0 1026.3 0.0 WNW 1.6 0.0
00:55 17.7 85.0 1026.2 0.0 WNW 1.6 0.0
01:00 17.6 84.0 1026.2 0.0 WNW 0.0 0.0
01:05 17.5 84.0 1026.2 0.0 WNW 0.0 0.0
01:10 17.4 85.0 1026.1 0.0 WNW 0.0 0.0
01:15 17.5 85.0 1026.1 0.0 WNW 0.0 0.0
01:20 17.4 84.0 1026.1 0.0 WNW 0.0 0.0
01:25 17.4 84.0 1026.1 0.0 WNW 0.0 0.0
01:30 17.4 84.0 1026.0 0.0 WNW 0.0 0.0
01:35 17.4 84.0 1026.0 0.0 WNW 0.0 0.0
01:40 17.4 84.0 1025.9 0.0 WNW 0.0 0.0
01:45 17.5 85.0 1025.8 0.0 WNW 1.6 0.0
01:50 17.6 84.0 1025.8 0.0 WNW 1.6 0.0
01:55 17.4 84.0 1025.8 0.0 WNW 1.6 0.0
02:00 17.4 85.0 1025.7 0.0 WNW 0.0 0.0
02:05 17.3 85.0 1025.6 0.0 WNW 0.0 0.0
02:10 17.3 84.0 1025.6 0.0 WNW 0.0 0.0
02:15 17.3 84.0 1025.7 0.0 WNW 0.0 0.0
02:20 17.3 84.0 1025.6 0.0 WNW 0.0 0.0
02:25 17.3 84.0 1025.6 0.0 WNW 0.0 0.0
02:30 17.3 84.0 1025.6 0.0 WNW 0.0 0.0
02:35 17.3 85.0 1025.5 0.0 WNW 0.0 0.0
02:40 17.3 84.0 1025.5 0.0 WNW 0.0 0.0
02:45 17.3 84.0 1025.5 0.0 WNW 0.0 0.0
02:50 17.3 84.0 1025.5 0.0 WNW 0.0 0.0
02:55 17.3 83.0 1025.5 0.0 WNW 0.0 0.0
03:00 17.4 83.0 1025.5 0.0 WNW 0.0 0.0
03:05 17.4 83.0 1025.6 0.0 WNW 0.0 0.0
03:10 17.4 83.0 1025.5 0.0 S 3.2 0.0
03:15 17.5 83.0 1025.5 0.0 S 3.2 0.0
03:20 17.5 83.0 1025.5 0.0 S 1.6 0.0
03:25 17.5 83.0 1025.5 0.0 S 0.0 0.0
03:30 17.4 83.0 1025.4 0.0 S 0.0 0.0
03:35 17.4 83.0 1025.4 0.0 S 0.0 0.0
03:40 17.4 82.0 1025.5 0.0 S 0.0 0.0
03:45 17.4 81.0 1025.5 0.0 S 0.0 0.0
03:50 17.4 81.0 1025.4 0.0 S 0.0 0.0
03:55 17.3 82.0 1025.4 0.0 S 0.0 0.0
04:00 17.4 82.0 1025.4 0.0 S 0.0 0.0
04:05 17.4 82.0 1025.4 0.0 S 0.0 0.0
04:10 17.4 82.0 1025.4 0.0 S 0.0 0.0
04:15 17.4 83.0 1025.4 0.0 S 0.0 0.0
04:20 17.3 83.0 1025.5 0.0 S 0.0 0.0
04:25 17.3 83.0 1025.4 0.0 S 0.0 0.0
04:30 17.3 83.0 1025.4 0.0 S 0.0 0.0
04:35 17.4 83.0 1025.5 0.0 S 3.2 0.0
04:40 17.4 84.0 1025.5 0.0 S 3.2 0.0
04:45 17.4 84.0 1025.5 0.0 S 1.6 0.0
04:50 17.4 84.0 1025.6 0.0 S 1.6 0.0
04:55 17.4 84.0 1025.6 0.0 S 0.0 0.0
05:00 17.4 84.0 1025.7 0.0 S 0.0 0.0
05:05 17.4 84.0 1025.8 0.0 S 0.0 0.0
05:10 17.4 84.0 1025.8 1.6 SSW 4.8 0.0
05:15 17.4 83.0 1025.8 0.0 SSW 4.8 0.0
05:20 17.4 82.0 1025.8 1.6 SSW 4.8 0.0
05:25 17.4 81.0 1025.9 0.0 SSW 4.8 0.0
05:30 17.4 80.0 1026.0 0.0 SSW 3.2 0.0
05:35 17.4 81.0 1026.0 0.0 SSW 3.2 0.0
05:40 17.4 82.0 1026.1 0.0 SW 3.2 0.0
05:45 17.5 81.0 1026.0 0.0 SW 3.2 0.0
05:50 17.5 81.0 1026.0 0.0 W 3.2 0.0
05:55 17.5 82.0 1026.1 0.0 W 3.2 0.0
06:00 17.6 82.0 1026.2 0.0 W 1.6 0.0
06:05 17.6 80.0 1026.1 0.0 W 0.0 0.0
06:10 17.7 80.0 1026.4 0.0 WSW 0.0 0.0
06:15 17.7 80.0 1026.5 0.0 WSW 0.0 0.0
06:20 17.8 80.0 1026.5 0.0 WSW 1.6 0.0
06:25 17.9 79.0 1026.4 0.0 S 1.6 0.0
06:30 18.0 78.0 1026.4 3.2 S 4.8 0.0
06:35 18.0 76.0 1026.3 0.0 NNE 4.8 0.0
06:40 18.1 76.0 1026.4 0.0 SSW 3.2 0.0
06:45 18.1 75.0 1026.3 0.0 SE 4.8 0.0
06:50 18.2 75.0 1026.3 0.0 NW 4.8 0.0
06:55 18.2 75.0 1026.3 0.0 WSW 3.2 0.0
07:00 18.2 74.0 1026.4 1.6 SSW 3.2 0.0
07:00 18.2 74.0 1026.4 0.0 SSW 4.8 0.0
07:10 18.2 74.0 1026.4 4.8 SW 4.8 0.0
07:15 18.2 73.0 1026.4 0.0 S 8.0 0.0
07:20 18.2 73.0 1026.5 1.6 SW 4.8 0.0
07:25 18.3 73.0 1026.5 1.6 S 4.8 0.0
07:30 18.3 73.0 1026.5 0.0 S 4.8 0.0
07:35 18.3 73.0 1026.4 1.6 W 6.4 0.0
07:40 18.3 74.0 1026.5 0.0 W 6.4 0.0
07:45 18.4 73.0 1026.4 1.6 S 6.4 0.0
07:50 18.4 72.0 1026.4 1.6 S 8.0 0.0
07:55 18.4 72.0 1026.4 1.6 S 8.0 0.0
08:00 18.5 72.0 1026.2 0.0 SSW 6.4 0.0
08:05 18.6 72.0 1026.3 0.0 S 6.4 0.0
08:10 18.7 71.0 1026.2 1.6 S 6.4 0.0
08:15 18.8 69.0 1026.2 0.0 SSW 6.4 0.0
08:20 18.9 71.0 1026.2 0.0 SSW 4.8 0.0
08:25 19.1 71.0 1026.1 0.0 W 3.2 0.0
08:30 19.4 68.0 1026.1 0.0 W 6.4 0.0
08:35 19.7 69.0 1026.1 0.0 NW 6.4 0.0
08:40 19.9 65.0 1026.2 0.0 W 3.2 0.0
08:45 20.1 68.0 1026.2 0.0 SW 3.2 0.0
08:50 20.2 69.0 1026.2 0.0 W 9.7 0.0
08:55 20.4 66.0 1026.2 0.0 W 4.8 0.0
09:00 20.4 66.0 1026.3 0.0 SW 1.6 0.0
09:05 20.5 67.0 1026.3 0.0 SSW 4.8 0.0
09:10 20.5 63.0 1026.3 6.4 ENE 8.0 0.0
09:15 20.3 63.0 1026.2 1.6 ENE 8.0 0.0
09:20 20.4 66.0 1026.2 3.2 N 6.4 0.0
09:25 20.6 64.0 1026.4 4.8 N 8.0 0.0
09:30 20.7 65.0 1026.4 1.6 NNE 8.0 0.0
09:35 20.7 63.0 1026.4 0.0 NE 8.0 0.0
09:40 20.9 66.0 1026.4 0.0 WNW 8.0 0.0
09:45 21.1 66.0 1026.5 1.6 W 6.4 0.0
09:50 21.3 66.0 1026.6 1.6 W 4.8 0.0
09:55 21.3 63.0 1026.5 0.0 NE 4.8 0.0
10:00 21.3 63.0 1026.5 4.8 ENE 8.0 0.0
10:05 21.1 63.0 1026.4 0.0 NE 9.7 0.0
10:10 21.1 64.0 1026.4 4.8 NE 9.7 0.0
10:15 21.1 66.0 1026.4 1.6 NNE 8.0 0.0
10:20 21.2 64.0 1026.3 0.0 NW 6.4 0.0
10:25 21.3 66.0 1026.3 1.6 NNE 6.4 0.0
10:30 21.4 64.0 1026.4 1.6 NE 8.0 0.0
10:35 21.4 65.0 1026.4 0.0 NE 8.0 0.0
10:40 21.4 65.0 1026.3 1.6 NNE 4.8 0.0
10:45 21.3 66.0 1026.4 1.6 NNE 6.4 0.0
10:50 21.3 65.0 1026.3 0.0 NNE 6.4 0.0
10:55 21.3 66.0 1026.3 0.0 NE 3.2 0.0
11:00 21.3 66.0 1026.2 1.6 NE 3.2 0.0
11:05 21.4 65.0 1026.2 1.6 ENE 6.4 0.0
11:10 21.3 66.0 1026.2 0.0 ENE 6.4 0.0
11:15 21.2 67.0 1026.2 4.8 NE 6.4 0.0
11:20 21.2 66.0 1026.2 0.0 N 6.4 0.0
11:25 21.3 66.0 1026.2 0.0 W 4.8 0.0
11:30 21.4 64.0 1026.2 1.6 NE 3.2 0.0
11:35 21.4 65.0 1026.2 0.0 NE 3.2 0.0
11:40 21.6 64.0 1026.1 0.0 NNE 3.2 0.0
11:45 21.6 65.0 1026.2 4.8 NNE 8.0 0.0
11:50 21.6 64.0 1026.1 6.4 ENE 9.7 0.0
11:55 21.5 65.0 1026.2 0.0 NNE 9.7 0.0
12:00 21.6 64.0 1026.1 3.2 NE 4.8 0.0
12:05 21.5 64.0 1026.1 1.6 NE 6.4 0.0
12:10 21.6 64.0 1026.1 1.6 NE 8.0 0.0
12:15 21.6 66.0 1026.1 0.0 ENE 8.0 0.0
12:20 21.7 64.0 1026.1 0.0 ENE 6.4 0.0
12:25 21.7 63.0 1026.1 0.0 ENE 3.2 0.0
12:30 21.6 64.0 1026.0 0.0 ENE 4.8 0.0
12:35 21.7 63.0 1026.0 0.0 ENE 6.4 0.0
12:40 21.7 65.0 1025.9 0.0 ENE 4.8 0.0
12:45 21.8 64.0 1025.8 1.6 NE 4.8 0.0
12:50 21.9 63.0 1025.9 3.2 NE 4.8 0.0
12:55 22.0 63.0 1025.8 3.2 NE 4.8 0.0
13:00 22.0 63.0 1025.7 1.6 NE 4.8 0.0
13:05 21.9 63.0 1025.6 0.0 NE 4.8 0.0
13:10 22.1 65.0 1025.7 0.0 NE 4.8 0.0
13:15 22.2 67.0 1025.5 0.0 W 3.2 0.0
13:20 22.6 66.0 1025.5 0.0 WNW 3.2 0.0
13:25 22.8 63.0 1025.5 0.0 NNW 4.8 0.0
13:30 23.0 62.0 1025.6 0.0 E 4.8 0.0
13:35 23.1 62.0 1025.6 0.0 E 1.6 0.0
13:40 23.1 61.0 1025.5 1.6 E 3.2 0.0
13:45 22.9 62.0 1025.4 0.0 E 3.2 0.0
13:50 22.8 62.0 1025.4 3.2 S 3.2 0.0
13:55 22.8 64.0 1025.3 0.0 S 3.2 0.0
14:00 22.8 62.0 1025.3 4.8 SW 4.8 0.0
14:05 22.8 62.0 1025.2 4.8 SSW 6.4 0.0
14:10 22.8 62.0 1025.2 4.8 SSW 6.4 0.0
14:15 22.8 62.0 1025.2 1.6 S 8.0 0.0
14:20 22.8 62.0 1025.1 3.2 S 6.4 0.0
14:25 22.8 63.0 1025.1 1.6 S 6.4 0.0
14:30 22.9 65.0 1025.1 0.0 S 3.2 0.0
14:35 23.1 65.0 1025.1 0.0 SW 3.2 0.0
14:40 23.4 64.0 1025.0 0.0 SW 3.2 0.0
14:45 23.6 62.0 1024.9 1.6 SW 3.2 0.0
14:50 23.8 63.0 1025.0 0.0 W 6.4 0.0
14:55 24.1 61.0 1024.9 0.0 S 6.4 0.0
15:00 23.9 62.0 1024.9 0.0 S 6.4 0.0
15:05 23.9 60.0 1024.9 1.6 WSW 6.4 0.0
15:10 23.8 60.0 1024.9 1.6 SSW 11.3 0.0
15:15 23.6 61.0 1024.8 4.8 ENE 8.0 0.0
15:20 23.4 62.0 1024.9 0.0 SSE 6.4 0.0
15:25 23.3 61.0 1024.9 0.0 E 4.8 0.0
15:30 23.2 61.0 1024.9 3.2 ENE 8.0 0.0
15:35 23.1 62.0 1024.9 0.0 N 8.0 0.0
15:40 23.1 62.0 1024.9 0.0 NE 4.8 0.0
15:45 23.1 63.0 1024.8 0.0 NE 4.8 0.0
15:50 23.2 62.0 1024.8 3.2 ENE 8.0 0.0
15:55 23.3 64.0 1024.8 0.0 SSW 8.0 0.0
16:00 23.4 62.0 1024.8 1.6 SE 4.8 0.0
16:05 23.4 63.0 1024.7 3.2 S 6.4 0.0
16:10 23.4 62.0 1024.7 0.0 S 6.4 0.0
16:15 23.2 62.0 1024.6 0.0 S 1.6 0.0
16:20 23.1 62.0 1024.7 0.0 S 1.6 0.0
16:25 23.1 62.0 1024.6 3.2 E 4.8 0.0
16:30 23.1 63.0 1024.5 0.0 E 4.8 0.0
16:35 23.1 62.0 1024.4 4.8 S 4.8 0.0
16:40 23.1 61.0 1024.3 0.0 S 4.8 0.0
16:45 22.9 61.0 1024.2 3.2 SSW 9.7 0.0
16:50 22.8 62.0 1024.2 0.0 S 9.7 0.0
Màxima 24.1 85.0 1026.7 6.4 ENE 11.3 0.0
Mínima 17.2 60.0 1024.2
Total 0.0